Regional Weather Roundup
Issued by NWS Kansas City/Pleasant Hill, MO

Home | Current Version | Previous Version | Graphics & Text | Print | Product List | Glossary Off
Versions: 1 2 3 4 5 6 7 8 9 10 11 12 13 14 15 16 17 18 19 20 21 22 23 24 25 26 27 28 29 30 31 32 33 34 35 36 37 38 39 40 41 42 43 44 45 46 47 48 49 50

000
ASUS43 KEAX 192311
RWREAX

WEATHER ROUNDUP FOR EASTERN KANSAS AND NORTHWEST MISSOURI
NATIONAL WEATHER SERVICE KANSAS CITY/PLEASANT HILL MO
600 PM CDT SUN OCT 19 2014

KSZ040-057-103>105-MOZ028-029-037-043-200000-
...KANSAS CITY METROPOLITAN AREA...

CITY           SKY/WX    TMP DP  RH WIND       PRES   REMARKS
K.C. INTL      MOCLDY    65  47  52 SW9       30.01S
K.C. DOWNTOWN  PTCLDY    68  48  48 SW8       30.01S
LEES SUMMIT    CLEAR     67  48  50 S9        30.03S
OLATHE - IXD   CLEAR     65  50  58 S7        30.03F
OLATHE - OJC   CLEAR     65  48  54 S6        30.02S
LAWRENCE       CLEAR     67  46  47 SW13      30.01F

$$

MOZ001>008-011>017-020>025-030>033-038>040-044>046-053-054-200000-
...NORTHERN AND CENTRAL MISSOURI...

CITY           SKY/WX    TMP DP  RH WIND       PRES   REMARKS
ST. JOSEPH     PTCLDY    66  48  52 S6        29.99F
MOSBY          MOCLDY    66  46  48 S3        30.00F
WHITEMAN AFB   CLEAR     63  49  61 SW9       30.03F
CLINTON        CLEAR     64  52  63 S6        30.05F
SEDALIA        PTCLDY    63  46  54 S7        30.04F
WARSAW         NOT AVBL
MARSHALL       PTCLDY    68  48  49 S7        30.03F
CHILLICOTHE      N/A     64  47  53 S3        30.01F
MOBERLY        MOCLDY    64  41  42 S3        30.03F
KIRKSVILLE     MOCLDY    59  45  59 S6        30.01F

$$

MOZ041-047>049-056>058-063>065-088>090-097-200000-
...EASTERN AND SOUTHERN MISSOURI...

CITY           SKY/WX    TMP DP  RH WIND       PRES   REMARKS
ST. LOUIS INTL PTCLDY    62  45  53 S5        30.06F
SPIRIT OF STL  MOCLDY    61  49  64 CALM      30.04F
COLUMBIA       PTCLDY    59  45  59 S6        30.05F
JEFFERSON CITY PTCLDY    63  44  50 S3        30.05F
MEXICO         MOCLDY    64  50  59 S3        30.05F
ROLLA          CLEAR     59  42  53 SW6       30.05F
LEBANON        MOCLDY    61  46  59 CALM      30.08F
OSAGE BEACH    PTCLDY    64  43  45 SW6       30.06F
SPRINGFIELD    PTCLDY    63  51  65 S7        30.06F
BRANSON        PTCLDY    66  48  52 E3        30.10F
NEVADA         CLEAR     64  50  59 CALM      30.06S
JOPLIN         PTCLDY    63  52  67 SW3       30.07S
WEST PLAINS    MOCLDY    60  44  55 SE3       30.10F HAZE

$$

IAZ060-094-KSZ022-034>040-054-083-096-NEZ052-066-093-200000-
...KANSAS...SOUTHEAST NEBRASKA AND IOWA...

CITY           SKY/WX    TMP DP  RH WIND       PRES   REMARKS
TOPEKA         CLEAR     71  48  43 S7        30.00F
MANHATTAN      CLEAR     69  49  48 SW10      29.98F
CHANUTE        PTCLDY    64  53  67 S8        30.05S
WICHITA        MOCLDY    70  52  52 S9        30.00S
OMAHA          PTCLDY    71  47  42 SW8       29.93S
LINCOLN        CLEAR     71  47  42 SW9       29.96R
FALLS CITY     CLEAR     69  47  45 SW8       29.97S
LAMONI         PTCLDY    62  47  57 S10       29.97F
DES MOINES     PTCLDY    66  46  48 SW10      29.93S

$$




USA.gov is the U.S. government's official web portal to all federal, state and local government web resources and services.